Hyderabad, India

10:06 PM IST on February 13, 2016 (GMT +0530)
Hyderabad

Weather History for VOHY - September, 2012

Change the Weather History Date:

Sunday, September 16, 2012

  Actual Average Record
Temperature  
Mean Temperature 79 °F -  
Max Temperature 86 °F 83 °F 89 °F (2002)
Min Temperature 72 °F 70 °F 69 °F (1997)
Cooling Degree Days 14    
Growing Degree Days 29 (Base 50)    
Moisture  
Dew Point 68 °F    
Average Humidity 65    
Maximum Humidity 83    
Minimum Humidity 51    
Precipitation  
Precipitation 0.00 in 0.16 in - ()
Sea Level Pressure  
Sea Level Pressure 29.77 in    
Wind  
Wind Speed 9 mph ()    
Max Wind Speed 17 mph    
Max Gust Speed -    
Visibility 3.8 miles    
Events      
Averages and records for this station are not official NWS values.
T = Trace of Precipitation, MM = Missing Value Source: Averaged Metar Reports

Daily Weather History Graph

Daily Weather History Graph

Search for Another Location

Airport or City:

Trip Planner

Search our weather history database for the weather conditions in past years. The results will help you decide how hot, cold, wet, or windy it might be!

Date:

Astronomy

Sep. 16, 2012 Rise Set
Actual Time 6:04 AM IST 6:17 PM IST
Civil Twilight 5:42 AM IST 6:38 PM IST
Nautical Twilight 5:17 AM IST 7:04 PM IST
Astronomical Twilight 4:51 AM IST 7:29 PM IST
Moon 6:02 AM IST (9/16) 6:20 PM IST (9/16)
Length of Visible Light 12h 56m
Length of Day
12h 13m
New Moon, 0% of the Moon is Illuminated
Sep 16
New Moon
Sep 23
First Quarter
Sep 30
Full
Oct 8
Last Quarter
Oct 15
New

Hourly Weather History & Observations

Time (IST) Temp. Heat Index Dew Point Humidity Pressure Visibility Wind Dir Wind Speed Gust Speed Precip Events Conditions
2:30 AM 75 °F - 69 °F 75% 29.70 in 2 mi West 11.5 mph - -   Haze
5:30 AM 74 °F - 68 °F 76% 29.70 in 2 mi West 11.5 mph - -   Haze
7:10 AM 73.4 °F - 62.6 °F 69% 29.83 in 3.7 mi WNW 13.8 mph - N/A   Mostly Cloudy
8:10 AM 75.2 °F - 64.4 °F 69% 29.86 in 3.7 mi West 13.8 mph - N/A   Mostly Cloudy
8:30 AM 77 °F - 72 °F 81% 29.75 in 6 mi West 9.2 mph - -   Scattered Clouds
9:10 AM 78.8 °F - 66.2 °F 65% 29.86 in 3.7 mi WNW 9.2 mph - N/A   Mostly Cloudy
10:10 AM 82.4 °F 84.6 °F 66.2 °F 58% 29.86 in 3.7 mi WNW 16.1 mph - N/A   Mostly Cloudy
11:10 AM 82.4 °F 85.4 °F 68.0 °F 62% 29.86 in 3.7 mi WNW 16.1 mph - N/A   Mostly Cloudy
11:30 AM 82 °F - 72 °F 63% 29.73 in 6 mi West 11.5 mph - -   Mostly Cloudy
12:10 PM 82.4 °F 84.6 °F 66.2 °F 58% 29.83 in 3.7 mi NW 12.7 mph - N/A   Scattered Clouds
1:10 PM 86.0 °F 88.2 °F 66.2 °F 51% 29.80 in 3.7 mi WNW 17.3 mph - N/A   Scattered Clouds
2:30 PM 83 °F - 71 °F 60% 29.65 in 6 mi West 4.6 mph - -   Mostly Cloudy
2:40 PM 82.4 °F 84.6 °F 66.2 °F 58% 29.77 in 3.7 mi NW 9.2 mph - N/A   Scattered Clouds
3:10 PM 84.2 °F 86.6 °F 66.2 °F 55% 29.74 in 3.7 mi WNW 9.2 mph - N/A   Scattered Clouds
4:10 PM 84.2 °F 86.6 °F 66.2 °F 55% 29.74 in 3.7 mi West 11.5 mph - N/A   Scattered Clouds
5:10 PM 84.2 °F 86.6 °F 66.2 °F 55% 29.74 in 3.7 mi West 11.5 mph - N/A   Scattered Clouds
5:30 PM 83 °F - 72 °F 61% 29.63 in 6 mi West 6.9 mph - -   Mostly Cloudy
6:10 PM 80.6 °F 83.2 °F 68.0 °F 65% 29.77 in 3.7 mi NW 5.8 mph - N/A   Mostly Cloudy
7:10 PM 78.8 °F - 66.2 °F 65% 29.77 in 3.7 mi NW 5.8 mph - N/A   Mostly Cloudy
8:10 PM 78.8 °F - 66.2 °F 65% 29.80 in 3.7 mi Variable 2.3 mph - N/A   Mostly Cloudy
8:30 PM 78 °F - 72 °F 78% 29.70 in 2 mi Calm Calm - -   Haze
9:10 PM 78.8 °F - 66.2 °F 65% 29.83 in 3.7 mi Calm Calm - N/A   Mostly Cloudy
11:30 PM 77 °F - 73 °F 83% 29.73 in 2 mi Calm Calm - -   Haze